Ontario, CA

12:34 AM PDT on June 24, 2018 (GMT -0700)
Ontario International

Weather History for KONT - October, 2017

Change the Weather History Date:

Wednesday, October 11, 2017

  Actual Average Record
Temperature  
Mean Temperature 70 °F 69 °F  
Max Temperature 83 °F 82 °F 98 °F (2015)
Min Temperature 56 °F 57 °F 49 °F (2008)
Degree Days  
Heating Degree Days 0 1  
Month to date heating degree days 0 6  
Since 1 July heating degree days 1 9  
Cooling Degree Days 5 5  
Month to date cooling degree days 74 65  
Year to date cooling degree days 2052 1616  
Growing Degree Days 20 (Base 50)    
Moisture  
Dew Point 44 °F    
Average Humidity 37    
Maximum Humidity 51    
Minimum Humidity 23    
Precipitation  
Precipitation 0.00 in 0.02 in 0.16 in (2012)
Month to date precipitation 0.00 0.11  
Year to date precipitation 10.85 10.98  
Sea Level Pressure  
Sea Level Pressure 29.85 in    
Wind  
Wind Speed 5 mph (West)    
Max Wind Speed 16 mph    
Max Gust Speed 21 mph    
Visibility 10 miles    
Events      
T = Trace of Precipitation, MM = Missing Value Source: NWS Daily Summary

Daily Weather History Graph

Daily Weather History Graph

Search for Another Location

Airport or City:

Astronomy

Oct. 11, 2017 Rise Set
Actual Time 6:52 AM PDT 6:20 PM PDT
Civil Twilight 6:27 AM PDT 6:45 PM PDT
Nautical Twilight 5:58 AM PDT 7:14 PM PDT
Astronomical Twilight 5:29 AM PDT 7:43 PM PDT
Moon 11:39 PM PDT (10/11) 1:03 PM PDT (10/11)
Length of Visible Light 12h 18m
Length of Day
11h 28m
Waning Gibbous, 58% of the Moon is Illuminated
Oct 11
Waning Gibbous
Oct 12
Last Quarter
Oct 19
New
Oct 27
First Quarter
Nov 3
Full

Hourly Weather History & Observations

Time (PDT) Temp. Dew Point Humidity Pressure Visibility Wind Dir Wind Speed Gust Speed Precip Events Conditions
12:53 AM 63.0 °F 39.9 °F 43% 29.85 in 10.0 mi Calm Calm - N/A   Mostly Cloudy
1:53 AM 63.0 °F 39.0 °F 41% 29.84 in 10.0 mi Calm Calm - N/A   Mostly Cloudy
2:53 AM 62.1 °F 39.9 °F 44% 29.83 in 10.0 mi Calm Calm - N/A   Mostly Cloudy
3:53 AM 60.1 °F 39.9 °F 47% 29.83 in 10.0 mi Calm Calm - N/A   Mostly Cloudy
4:53 AM 60.1 °F 41.0 °F 49% 29.83 in 10.0 mi Calm Calm - N/A   Scattered Clouds
5:53 AM 59.0 °F 41.0 °F 51% 29.84 in 10.0 mi Calm Calm - N/A   Partly Cloudy
6:53 AM 59.0 °F 39.0 °F 48% 29.85 in 10.0 mi NNE 3.5 mph - N/A   Partly Cloudy
7:53 AM 63.0 °F 37.0 °F 38% 29.87 in 10.0 mi Calm Calm - N/A   Mostly Cloudy
8:53 AM 66.9 °F 35.1 °F 31% 29.88 in 10.0 mi Calm Calm - N/A   Mostly Cloudy
9:53 AM 70.0 °F 37.9 °F 31% 29.88 in 10.0 mi WSW 5.8 mph - N/A   Scattered Clouds
10:53 AM 73.0 °F 36.0 °F 26% 29.88 in 10.0 mi SW 5.8 mph - N/A   Partly Cloudy
11:53 AM 78.1 °F 37.0 °F 23% 29.87 in 10.0 mi WSW 5.8 mph - N/A   Partly Cloudy
12:53 PM 79.0 °F 44.1 °F 29% 29.86 in 10.0 mi West 10.4 mph - N/A   Partly Cloudy
1:53 PM 81.0 °F 42.1 °F 25% 29.83 in 10.0 mi West 11.5 mph - N/A   Partly Cloudy
2:53 PM 82.0 °F 45.0 °F 27% 29.81 in 10.0 mi West 11.5 mph - N/A   Partly Cloudy
3:53 PM 82.0 °F 46.9 °F 29% 29.81 in 10.0 mi West 11.5 mph 19.6 mph N/A   Partly Cloudy
4:53 PM 80.1 °F 46.9 °F 31% 29.81 in 10.0 mi WSW 11.5 mph - N/A   Clear
5:53 PM 75.9 °F 48.9 °F 38% 29.82 in 10.0 mi West 9.2 mph - N/A   Clear
6:53 PM 71.1 °F 55.0 °F 57% 29.83 in 10.0 mi WSW 10.4 mph - N/A   Partly Cloudy
7:53 PM 68.0 °F 55.0 °F 63% 29.84 in 10.0 mi West 9.2 mph - N/A   Clear
8:53 PM 66.0 °F 55.0 °F 68% 29.86 in 10.0 mi WSW 9.2 mph - N/A   Clear
9:53 PM 64.0 °F 55.0 °F 73% 29.87 in 10.0 mi SW 8.1 mph - N/A   Clear
10:53 PM 61.0 °F 54.0 °F 78% 29.88 in 10.0 mi Calm Calm - N/A   Clear
11:53 PM 61.0 °F 55.0 °F 81% 29.88 in 10.0 mi NW 3.5 mph - N/A   Clear